Terminal Aerodrome Forecast
Issued by NWS

Home | Current Version | Previous Version | Text Only | Print | Product List | Glossary On
Versions: 1 2 3 4 5 6 7 8 9 10 11 12 13 14 15 16 17 18
000
FTUS43 KDVN 160100 AAA
TAFBRL
TAF AMD
KBRL 160113Z 1601/1624 01008KT P6SM BKN020
     FM160200 01007KT P6SM SCT020
      TEMPO 1602/1603 BKN025
     FM160400 34003KT P6SM SKC=

USA.gov is the U.S. government's official web portal to all federal, state and local government web resources and services.